Weather History for Longview, TX

Change the Weather History Date:

Monday, January 28, 2013

  Actual Average Record
Temperature  
Mean Temperature 73 °F 47 °F  
Max Temperature 80 °F 58 °F 83 °F (1975)
Min Temperature 66 °F 36 °F 15 °F (1963)
Degree Days  
Heating Degree Days 0 18  
Month to date heating degree days 413 526  
Since 1 July heating degree days 1192 1432  
Cooling Degree Days 8 0  
Month to date cooling degree days 8 0  
Year to date cooling degree days 8 0  
Growing Degree Days 22 (Base 50)    
Moisture  
Dew Point 62 °F    
Average Humidity 71    
Maximum Humidity 87    
Minimum Humidity 54    
Precipitation  
Precipitation T in 0.12 in 2.00 in (1902)
Month to date precipitation 3.33 2.97  
Year to date precipitation 3.33 2.97  
Snow  
Snow 0.00 in - - ()
Month to date snowfall 0.1  
Since 1 July snowfall 0.8  
Snow Depth 0.00 in    
Sea Level Pressure  
Sea Level Pressure 30.02 in    
Wind  
Wind Speed 12 mph (SSE)    
Max Wind Speed 24 mph    
Max Gust Speed 29 mph    
Visibility 10 miles    
Events      
T = Trace of Precipitation, MM = Missing Value Source: NWS Daily Summary

Daily Weather History Graph

Daily Weather History Graph

Search for Another Location

Airport:

Trip Planner

Search our weather history database for the weather conditions in past years. The results will help you decide how hot, cold, wet, or windy it might be!

Date:

Astronomy

Jan. 28, 2013 Rise Set
Actual Time 7:15 AM CST 5:48 PM CST
Civil Twilight 6:49 AM CST 6:14 PM CST
Nautical Twilight 6:19 AM CST 6:44 PM CST
Astronomical Twilight 5:50 AM CST 7:13 PM CST
Moon 7:34 PM CST (1/28) 7:49 AM CST (1/28)
Length of Visible Light 11h 25m
Length of Day
10h 33m
Full, 98% of the Moon is Illuminated
Jan 28
Full
Feb 3
Last Quarter
Feb 10
New
Feb 17
First Quarter
Feb 25
Full

Hourly Weather History & Observations

Time (CST) Temp. Dew Point Humidity Pressure Visibility Wind Dir Wind Speed Gust Speed Precip Events Conditions
12:53 AM 69.1 °F 62.1 °F 78% 30.06 in 10.0 mi South 15.0 mph 23.0 mph 0.00 in   Overcast
1:04 AM 69.8 °F 62.6 °F 78% 30.07 in 10.0 mi South 16.1 mph - N/A   Overcast
1:53 AM 69.1 °F 62.1 °F 78% 30.07 in 10.0 mi South 12.7 mph - N/A   Overcast
2:02 AM 69.8 °F 62.6 °F 78% 30.08 in 10.0 mi South 12.7 mph - N/A   Overcast
2:18 AM 68.0 °F 62.6 °F 83% 30.08 in 10.0 mi South 12.7 mph 20.7 mph N/A   Overcast
2:53 AM 68.0 °F 62.1 °F 81% 30.07 in 10.0 mi South 8.1 mph - N/A   Overcast
3:53 AM 68.0 °F 62.1 °F 81% 30.06 in 10.0 mi South 9.2 mph - N/A   Mostly Cloudy
4:42 AM 68.0 °F 62.6 °F 83% 30.07 in 10.0 mi South 11.5 mph - N/A   Overcast
4:53 AM 68.0 °F 62.1 °F 81% 30.06 in 10.0 mi South 11.5 mph - N/A   Overcast
5:07 AM 68.0 °F 62.6 °F 83% 30.07 in 10.0 mi South 10.4 mph - N/A   Overcast
5:53 AM 66.9 °F 62.1 °F 84% 30.06 in 10.0 mi South 8.1 mph - N/A   Overcast
6:53 AM 66.9 °F 62.1 °F 84% 30.07 in 10.0 mi SSE 8.1 mph - N/A   Overcast
7:53 AM 66.0 °F 62.1 °F 87% 30.08 in 10.0 mi SE 6.9 mph - N/A   Overcast
8:53 AM 68.0 °F 63.0 °F 84% 30.09 in 7.0 mi SSE 5.8 mph - N/A   Overcast
9:53 AM 69.1 °F 63.0 °F 81% 30.09 in 10.0 mi South 10.4 mph - N/A   Overcast
10:53 AM 70.0 °F 64.0 °F 81% 30.09 in 10.0 mi South 9.2 mph - N/A   Overcast
11:53 AM 73.0 °F 63.0 °F 71% 30.05 in 10.0 mi South 17.3 mph 21.9 mph N/A   Overcast
12:53 PM 75.9 °F 63.0 °F 64% 30.01 in 10.0 mi South 17.3 mph 23.0 mph N/A   Overcast
1:00 PM 75.2 °F 62.6 °F 65% 30.02 in 10.0 mi South 15.0 mph 23.0 mph N/A   Mostly Cloudy
1:53 PM 78.1 °F 62.1 °F 58% 29.97 in 10.0 mi SSE 19.6 mph 25.3 mph N/A   Mostly Cloudy
2:53 PM 78.1 °F 61.0 °F 56% 29.96 in 10.0 mi South 16.1 mph 25.3 mph N/A   Overcast
3:53 PM 79.0 °F 61.0 °F 54% 29.94 in 10.0 mi South 18.4 mph 26.5 mph N/A   Scattered Clouds
4:53 PM 77.0 °F 60.1 °F 56% 29.93 in 10.0 mi SSE 13.8 mph 24.2 mph N/A   Clear
5:53 PM 73.0 °F 60.1 °F 64% 29.94 in 10.0 mi SSE 15.0 mph 23.0 mph N/A   Clear
6:53 PM 71.1 °F 60.1 °F 68% 29.94 in 10.0 mi SSE 10.4 mph - N/A   Clear
7:53 PM 71.1 °F 61.0 °F 70% 29.96 in 10.0 mi SSE 15.0 mph - N/A   Clear
8:51 PM 69.8 °F 60.8 °F 73% 29.97 in 10.0 mi South 11.5 mph - N/A   Mostly Cloudy
8:53 PM 70.0 °F 61.0 °F 73% 29.96 in 10.0 mi South 13.8 mph - N/A   Mostly Cloudy
9:53 PM 69.1 °F 62.1 °F 78% 29.96 in 10.0 mi South 12.7 mph - N/A   Overcast
10:45 PM 69.8 °F 62.6 °F 78% 29.97 in 10.0 mi SSE 11.5 mph - N/A   Mostly Cloudy
10:53 PM 68.0 °F 62.1 °F 81% 29.95 in 10.0 mi SSE 10.4 mph - N/A   Scattered Clouds
11:53 PM 66.9 °F 62.1 °F 84% 29.93 in 10.0 mi SSE 12.7 mph - N/A   Partly Cloudy